Flag for U.S.A. Weather past 2 weeks in Milwaukee, Wisconsin, U.S.A.

Now
39 °F

Sunny.


Feels Like: 34 °F
Forecast: 34 / 50 °F
Wind: 7 mph from Northeast

Location: Milwaukee / Timmerman

Current Time: Apr 26, 2015 at 8:59:01 AM

Latest Report: Apr 26, 2015 at 7:45 AM


Visibility: 10 mi

Pressure: 30.03 "Hg

Humidity: 61%

Dew point: 27 °F

Location of MilwaukeeLocation

Historic Weather in Milwaukee — Graph

°F

Milwaukee temperature yesterday

Maximum temperature yesterday: 45 °F (at 5:45 PM)
Minimum temperature yesterday: 37 °F (at 12:15 AM)
Average temperature yesterday: 39 °F

Past Weeks' High & Low Weather Summary

 TemperatureHumidityPressure
High73 °F (Apr 17, 11:45 AM)94% (Apr 20, 7:45 AM)30.34 "Hg (Apr 20, 7:45 AM)
Low28 °F (Apr 23, 4:55 AM)12% (Apr 14, 4:45 PM)29.19 "Hg (Apr 20, 4:15 AM)
Average45 °F60%29.94 "Hg
* Reported Apr 11 7:15 AM — Apr 26 7:45 AM, Milwaukee, Weather by CustomWeather, © 2015

Note: Actual official high and low records may vary slightly from our data, if they occured in-between our weather recording intervals... More about our weather records

Advertising

Milwaukee weather history for previous 24 hours

 ConditionsComfort  
Time TempWeatherWind HumidityBarometerVisibility
7:45 AM
Sun, Apr 26
39 °FSunny.7 mph61%30.03 "Hg10 mi
7:15 AM36 °FSunny.3 mph75%30.03 "Hg10 mi
6:55 AM34 °FSunny.3 mph81%30.02 "Hg10 mi
6:15 AM32 °FClear.3 mph87%30.01 "Hg10 mi
5:55 AM32 °FClear.6 mph87%30.00 "Hg10 mi
5:35 AM32 °FClear.6 mph87%30.00 "Hg10 mi
5:15 AM32 °FClear.6 mph87%29.99 "Hg10 mi
4:55 AM34 °FClear.7 mph81%29.98 "Hg10 mi
4:35 AM34 °FClear.8 mph81%29.98 "Hg10 mi
4:15 AM34 °FClear.8 mph81%29.97 "Hg10 mi
3:55 AM34 °FClear.6 mph81%29.97 "Hg10 mi
3:35 AM34 °FClear.3 mph81%29.96 "Hg10 mi
3:15 AM36 °FClear.5 mph75%29.96 "Hg10 mi
2:55 AM36 °FClear.5 mph75%29.95 "Hg10 mi
2:35 AM36 °FClear.3 mph75%29.95 "Hg10 mi
2:15 AM37 °FClear.5 mph70%29.95 "Hg10 mi
1:55 AM37 °FClear.7 mph70%29.94 "Hg10 mi
1:35 AM37 °FClear.8 mph70%29.94 "Hg10 mi
1:15 AM39 °FClear.9 mph65%29.93 "Hg10 mi
12:55 AM39 °FClear.8 mph65%29.91 "Hg10 mi
12:35 AM37 °FClear.7 mph56%29.91 "Hg10 mi
12:15 AM37 °FClear.7 mph52%29.90 "Hg10 mi
11:55 PM
Sat, Apr 25
37 °FPassing clouds.7 mph52%29.89 "Hg10 mi
11:35 PM37 °FPassing clouds.6 mph52%29.90 "Hg10 mi
11:15 PM37 °FPassing clouds.8 mph56%29.90 "Hg10 mi
10:55 PM37 °FPassing clouds.8 mph52%29.89 "Hg10 mi
10:15 PM41 °FPassing clouds.9 mph45%29.89 "Hg10 mi
9:55 PM41 °FPassing clouds.10 mph45%29.89 "Hg10 mi
9:35 PM41 °FOvercast.10 mph42%29.90 "Hg10 mi
9:15 PM41 °FPassing clouds.10 mph42%29.89 "Hg10 mi
8:45 PM43 °FMostly cloudy.10 mph34%29.89 "Hg10 mi
7:45 PM43 °FOvercast.12 mph34%29.88 "Hg10 mi
5:45 PM45 °FScattered clouds.15 mph37%29.84 "Hg10 mi
4:45 PM43 °FOvercast.20 mph49%29.84 "Hg10 mi
3:45 PM41 °FOvercast.12 mph53%29.84 "Hg10 mi
2:45 PM41 °FOvercast.14 mph53%29.85 "Hg10 mi
1:45 PM43 °FOvercast.14 mph53%29.85 "Hg10 mi
12:45 PM43 °FOvercast.10 mph57%29.85 "Hg10 mi
11:45 AM43 °FOvercast.14 mph66%29.85 "Hg10 mi
10:45 AM41 °FMore clouds than sun.12 mph70%29.86 "Hg10 mi
9:45 AM41 °FOvercast.10 mph70%29.86 "Hg10 mi
8:45 AM39 °FOvercast.8 mph75%29.88 "Hg10 mi
Weather by CustomWeather, © 2015

See weather overviewHow to use our weather pages